Dewpoint
49 44 40 42 42 40 37 37 36 34 34 34 33 34 37 39 38 36 36 37 37 38 39 38 40 41 43 44 45 46 48 49 51 50 47 48 55 59 61 61 62 62 63 63
45 40 41 43 43 41 39 36 35 35 35 35 33 33 36 37 37 36 36 35 36 37 37 39 41 42 42 43 44 46 45 45 47 49 50 51 53 57 59 62 62 62 63 62
37 37 41 42 41 41 39 37 35 34 35 34 34 30 33 35 37 36 36 36 36 35 36 38 40 40 41 42 42 43 42 42 43 45 49 55 53 56 58 60 59 55 56 56
40 40 40 40 38 40 37 37 37 36 33 30 32 22 26 28 28 32 35 36 36 35 35 37 39 39 40 40 40 40 39 38 38 41 47 51 53 54 56 53 50 47 48 49
34 38 37 37 37 34 33 34 33 33 33 31 31 30 27 29 28 28 28 28 36 36 37 38 37 38 38 38 37 37 36 35 34 34 39 47 49 50 52 47 45 43 40 41
34 37 37 34 37 35 36 37 36 36 34 30 30 30 26 25 27 26 27 28 31 36 37 37 37 37 35 35 34 33 32 32 30 29 30 34 38 41 41 42 41 40 39 39
34 35 36 34 35 37 38 34 27 29 27 24 27 30 26 29 29 27 27 27 32 36 35 35 34 34 33 32 32 31 30 29 27 26 26 29 29 31 33 34 34 34 33 34
30 29 34 36 33 33 35 34 27 20 22 22 26 26 25 30 30 30 29 30 35 35 35 34 33 33 31 31 30 28 29 28 25 24 24 25 26 27 28 29 30 30 31 32
29 28 33 36 36 33 33 33 31 27 21 22 24 24 25 27 28 30 29 34 35 35 35 33 32 31 30 29 29 27 28 27 23 22 23 23 24 25 25 26 27 28 29 28
32 25 32 33 35 35 33 34 31 30 21 13 20 21 21 25 28 30 32 33 34 35 34 32 30 29 28 27 28 26 26 26 23 22 22 22 22 23 24 24 25 25 26 27
35 30 31 35 33 31 34 32 32 30 28 20 17 17 22 21 24 28 31 33 34 34 34 31 28 27 27 26 27 25 24 25 22 22 22 22 22 22 23 23 24 24 25 26
35 35 30 32 36 34 32 31 31 27 20 25 25 21 24 24 27 28 29 31 33 35 34 30 27 25 24 25 25 26 22 24 22 21 21 21 21 21 21 21 22 24 24 25
35 34 27 27 33 34 34 31 32 31 31 27 25 22 26 25 26 29 29 29 32 34 32 30 26 24 23 22 23 24 21 22 22 20 20 20 20 20 20 20 21 22 23 23
37 33 29 22 22 32 32 33 33 33 30 28 29 27 27 27 27 29 32 32 32 33 32 30 28 24 22 21 21 23 21 20 21 20 19 19 19 19 20 20 21 22 22 23
37 32 30 30 26 29 29 30 33 33 32 28 26 28 29 29 31 32 32 32 33 33 33 31 29 26 22 21 21 21 22 19 20 19 19 19 20 20 20 21 21 21 21 22
38 31 31 29 30 28 28 28 30 31 31 30 29 28 29 30 31 31 31 32 33 33 33 33 31 28 25 21 21 19 21 19 19 19 19 19 19 20 20 20 20 21 21 22
35 34 31 27 29 31 28 31 29 28 29 29 27 28 29 29 29 29 29 31 31 31 33 33 32 30 28 25 21 19 20 19 18 18 19 19 19 19 20 20 19 20 20 21
34 34 33 28 29 20 26 27 30 29 28 29 29 29 28 28 28 28 28 29 29 32 32 33 34 32 30 28 21 19 19 18 18 18 18 19 19 18 19 19 18 19 19 19
34 33 31 27 23 25 24 24 24 26 25 28 28 28 29 29 29 27 28 29 30 31 31 32 34 35 32 26 20 18 18 18 18 17 18 18 18 17 18 18 18 18 19 19
34 34 31 25 23 19 23 23 25 24 22 24 25 26 26 26 25 25 27 30 29 30 30 31 33 31 27 23 19 19 19 18 17 17 17 18 17 18 18 18 18 19 20 20
27 30 28 26 24 23 25 24 25 19 18 24 24 24 24 24 25 27 29 29 30 29 27 26 26 26 25 20 19 19 18 18 17 17 17 17 17 18 18 19 19 20 20 20
24 27 26 27 25 21 28 25 22 23 26 26 26 27 25 26 26 27 27 28 28 27 24 21 20 18 17 19 19 19 18 18 17 17 17 17 17 18 18 18 18 20 20 19
18 24 20 24 23 25 25 26 26 27 26 27 26 27 27 27 27 27 26 26 26 25 22 19 18 18 17 19 19 18 18 17 16 16 16 16 18 19 19 17 18 18 18 17
18 24 23 20 22 23 24 24 26 27 27 26 28 27 26 27 27 24 24 25 24 21 19 17 17 17 17 17 20 18 17 17 16 15 16 17 17 17 17 18 18 17 16 15
18 19 18 18 15 18 19 21 22 23 24 22 23 22 21 21 21 22 23 23 22 20 17 16 16 17 17 16 15 14 15 16 16 16 15 15 15 15 15 16 15 15 14 14
22 20 18 16 18 19 19 21 22 21 22 20 17 17 19 18 18 18 18 19 20 16 15 14 14 14 12 12 11 12 15 17 15 13 13 13 13 13 13 12 13 15 14 15
Lifted_Index
1 2 3 3 3 3 4 4 5 5 5 5 5 5 5 5 5 5 5 6 6 6 5 5 5 6 6 7 7 7 7 7 7 7 8 8 7 5 4 2 1 1 1 1
2 3 3 3 3 3 4 4 4 5 5 5 5 5 6 6 6 6 6 6 7 6 6 5 6 6 6 7 7 7 7 7 8 8 8 8 7 6 4 2 1 1 1 1
3 3 4 3 3 3 3 4 4 4 4 5 5 5 6 6 7 7 7 7 7 7 6 6 6 6 7 7 7 7 8 8 9 9 8 8 7 6 4 3 2 1 1 1
3 3 3 3 3 3 3 3 3 4 4 5 5 5 6 7 7 8 8 8 8 7 7 7 6 6 7 7 7 8 8 9 9 9 8 7 6 5 4 3 3 2 2 2
4 3 3 3 3 3 3 3 3 3 4 4 5 5 6 7 7 7 8 8 8 8 7 7 7 7 7 7 7 8 9 9 9 9 8 7 6 5 4 4 3 3 3 3
4 4 4 3 3 2 3 3 3 3 3 3 4 5 6 7 7 7 8 8 8 8 7 7 7 7 7 7 8 9 9 10 9 9 8 7 6 5 4 4 4 4 4 3
3 3 3 3 3 2 2 2 2 2 1 2 4 4 6 8 8 8 8 8 8 8 7 7 7 7 7 8 8 9 9 10 10 9 9 8 7 6 5 5 4 4 4 4
3 3 3 3 3 2 2 1 1 1 1 2 3 4 6 8 8 8 8 8 8 7 7 7 7 7 7 8 8 9 9 9 10 10 9 9 8 7 6 6 6 5 5 5
3 3 3 3 3 2 2 2 2 2 1 1 2 4 6 7 7 7 7 7 7 7 7 6 6 6 7 7 8 9 9 9 9 10 10 9 9 8 8 7 7 7 7 7
4 3 3 3 3 2 2 2 2 2 1 1 2 3 4 6 6 6 6 6 6 6 6 6 6 6 6 7 8 9 9 9 9 9 10 10 10 9 9 9 9 9 10 10
3 3 3 3 3 2 2 2 1 1 1 1 1 3 5 6 6 6 6 5 5 5 5 5 5 5 6 7 7 8 9 9 9 9 10 10 10 11 11 11 11 12 12 13
2 2 2 3 2 2 2 1 1 1 2 2 2 4 5 6 5 5 5 5 5 5 5 5 5 5 6 6 7 8 8 8 9 9 10 10 11 12 12 13 13 14 14 14
1 1 1 2 2 2 2 1 1 1 1 1 2 4 5 5 5 4 4 5 5 4 4 4 5 5 6 6 6 7 7 8 8 9 10 11 12 13 13 13 13 14 14 14
0 0 1 2 2 1 1 1 0 -0 0 1 2 4 5 5 4 4 4 4 4 4 4 4 4 4 5 5 5 6 6 7 7 8 9 10 12 12 13 12 13 13 13 13
-0 0 1 1 1 1 0 0 -0 -0 0 1 2 3 5 5 4 4 4 3 3 3 3 4 4 4 4 4 4 4 5 5 6 7 8 9 11 12 12 11 11 11 11 11
-1 -0 0 1 0 0 0 0 0 0 0 1 1 2 4 4 4 4 4 3 3 3 3 3 3 3 4 4 4 4 4 4 5 6 7 8 10 10 10 10 9 9 9 10
-1 -0 -0 0 0 0 -0 0 0 1 1 1 1 2 3 3 4 4 3 3 3 3 3 3 3 3 3 3 3 3 3 3 4 5 6 7 8 9 9 9 8 8 8 9
-0 -0 -0 -0 0 0 0 1 1 1 1 1 1 1 2 3 3 3 3 3 3 3 2 2 2 2 3 3 3 2 2 2 3 4 4 5 7 8 8 8 7 8 9 10
-0 -0 -0 -0 -0 0 1 1 1 1 1 1 1 2 2 2 2 3 3 3 3 2 2 2 2 2 2 2 2 2 1 1 2 2 3 5 6 7 8 8 8 9 11 11
-0 -0 -0 -0 -0 0 1 1 1 1 1 2 2 2 2 1 2 2 2 2 2 2 2 2 2 1 1 1 1 1 1 1 1 2 3 5 6 7 8 8 9 10 11 11
-0 -0 -0 0 0 0 1 1 1 1 1 2 2 2 1 1 1 2 2 2 2 2 2 2 2 1 1 1 1 0 0 1 1 2 4 5 7 8 9 10 11 11 11 11
0 0 1 1 1 1 1 2 2 2 2 2 2 2 1 1 2 2 2 2 2 2 3 3 2 1 1 1 0 0 0 1 2 3 4 6 7 9 10 11 12 12 11 11
2 2 2 2 2 2 2 2 2 2 2 2 2 2 1 2 2 2 2 2 2 3 3 3 3 2 1 1 1 1 1 1 3 4 5 6 8 10 11 12 12 12 11 11
4 4 3 3 3 3 3 4 4 4 4 3 3 2 1 1 1 1 2 2 2 3 3 3 3 3 2 2 2 2 2 3 4 5 6 7 8 10 11 12 12 12 13 13
5 5 4 4 4 5 5 5 5 5 5 4 3 2 1 1 1 1 1 2 2 2 2 3 3 3 3 3 3 3 4 5 6 6 6 7 9 11 12 12 13 14 16 17
4 4 4 4 5 5 6 6 6 5 5 4 4 2 2 1 1 1 1 2 2 2 2 2 3 3 3 4 4 4 5 6 6 7 7 8 9 11 12 13 14 17 19 19